Regional Weather Roundup
Issued by NWS

Home | Current Version | Previous Version | Graphics & Text | Print | Product List | Glossary On
Versions: 1 2 3 4 5 6 7 8 9 10 11 12 13 14 15 16 17 18 19 20 21 22 23 24 25 26 27 28 29 30 31 32 33 34 35 36 37 38 39 40 41 42 43 44 45 46 47 48 49 50
000
ASUS43 KIND 141709
RWRIN

WEATHER ROUNDUP FOR INDIANA
NATIONAL WEATHER SERVICE INDIANAPOLIS IN
1200 PM EST THU DEC 14 2017

NOTE: "FAIR" INDICATES FEW OR NO CLOUDS BELOW 12,000 FEET WITH NO
SIGNIFICANT WEATHER AND/OR OBSTRUCTIONS TO VISIBILITY.

* - STATION DOES NOT REPORT WEATHER SUCH AS PRECIPITATION OR FOG.

+ - STATION NOT QUALITY CONTROLLED BY THE NATIONAL WEATHER SERVICE.
    USE DATA WITH CAUTION...ESPECIALLY DEWPOINT AND RELATIVE
    HUMIDITY OBSERVATIONS.

INZ001>003-010>013-019-020-141800-
NORTHWEST INDIANA

CITY           SKY/WX    TMP DP  RH WIND       PRES   REMARKS
GARY /AIRPORT/ PTSUNNY   25  16  68 W7        30.09S WCI  17
KNOX *+        CLOUDY    21  14  73 CALM      30.08S
LA PORTE +     LGT SNOW  19  12  74 CALM      30.08F
MICHIGAN CITY+ LGT SNOW  21  14  73 S5        30.08F WCI  15
MONTICELLO +   CLOUDY    25  12  56 NE3       30.07S
RENSSELAER +   CLOUDY    27  16  63 CALM      30.08F
VALPARAISO     LGT SNOW  22  16  78 S3        30.07F

$$

LMZ046-743>745-141800-
SOUTHERN LAKE MICHIGAN

STATION/POSITION TIME  TEMP    WIND        PRES    WAVE
                       AIR SEA DIR/SP/G            HT
                 (UTC) (F)     (DEG/KT/KT) (MB)    (FT)
BURNS HARBOR     1640   24     190/  7/ 12 1018.6S
MICHIGAN CITY    1640   20     150/ 11/ 12   N/A

$$

INZ004-005-014>016-021>024-141800-
NORTH CENTRAL INDIANA

CITY           SKY/WX    TMP DP  RH WIND       PRES   REMARKS
ELKHART        CLOUDY    19  10  68 SW7       30.07R WCI  10
GOSHEN         CLOUDY    18   9  68 CALM      30.06S
LOGANSPORT +   MOSUNNY   25  12  58 N5        30.07F WCI  19
PERU/GRISSOM   PTSUNNY   25  13  60 NE3       30.05S
ROCHESTER +    PTSUNNY   25  10  54 CALM      30.07F
SOUTH BEND     CLOUDY    18  11  74 S7        30.08S WCI   9
WARSAW +       CLOUDY    21   5  49 E3        30.06S

$$

INZ006>009-017-018-025>027-141800-
NORTHEAST INDIANA

CITY           SKY/WX    TMP DP  RH WIND       PRES   REMARKS
AUBURN +       CLOUDY    21   9  58 NE5       30.05F WCI  15
FORT WAYNE     CLOUDY    21   9  59 CALM      30.06F
HUNTINGTON +   CLOUDY    21   8  57 CALM      30.06S
KENDALLVILLE + CLOUDY    19   7  59 E3        30.04F

$$

INZ028-029-035-036-043>045-051>053-141800-
WEST CENTRAL INDIANA

CITY           SKY/WX    TMP DP  RH WIND       PRES   REMARKS
CRAWFORDSVL +  SUNNY     28  11  49 MISG      30.06F
GREENCASTLE +  MOSUNNY   30  14  51 NE8       30.06F WCI  23
LAFAYETTE      SUNNY     28  12  51 VRB5      30.07S WCI  23
TERRE HAUTE    CLOUDY    31  17  56 NE8       30.07S WCI  23

$$

INZ030>032-037>040-046>048-054>057-064-065-141800-
CENTRAL INDIANA

CITY           SKY/WX    TMP DP  RH WIND       PRES   REMARKS
ANDERSON       MOSUNNY   27  12  54 N6        30.07R WCI  20
COLUMBUS       SUNNY     27  12  54 N9        30.07R WCI  17
FRANKFORT +    SUNNY     31  14  49 NE7       30.07S WCI  24
INDIANAPOLIS   PTSUNNY   29  12  49 N8        30.06R WCI  21
-EAGLE CREEK   SUNNY     28  12  51 NE8       30.05S WCI  20
KOKOMO +       MOSUNNY   26  12  55 NE12      30.05F WCI  16
MARION +       MOSUNNY   25  13  59 NE8       30.06S WCI  16
MT COMFORT *+  MOSUNNY   27  18  69 NE7       30.06R WCI  19
SHELBYVILLE    MOSUNNY   27  15  61 NE7       30.05S WCI  19
ZIONSVILLE +   SUNNY     26  12  55 NE10      30.06S WCI  17

$$

INZ033-034-041-042-049-050-058-059-141800-
EAST CENTRAL INDIANA

CITY           SKY/WX    TMP DP  RH WIND       PRES   REMARKS
MUNCIE         MOSUNNY   26  15  63 N6        30.04F WCI  19
RICHMOND +     CLOUDY    21  16  79 N5        30.04R WCI  15

$$

INZ060-061-067>069-081>083-085>088-141800-
SOUTHWEST INDIANA

CITY           SKY/WX    TMP DP  RH WIND       PRES   REMARKS
EVANSVILLE     CLOUDY    33  21  61 N6        30.07F WCI  28
HUNTINGBURG +  CLOUDY    32  22  66 N8        30.06R WCI  25
WASHINGTON +   CLOUDY    32  19  59 N7        30.06F WCI  26

$$

INZ062-063-066-070>080-084-089>092-141800-
SOUTH CENTRAL AND SOUTHEAST INDIANA

CITY           SKY/WX    TMP DP  RH WIND       PRES   REMARKS
BEDFORD +      CLOUDY    30  18  59 N5        30.04R WCI  25
BLOOMINGTON    CLOUDY    30  16  56 N7        30.05R WCI  23
MADISON *+     MOSUNNY   32  14  47 NW6       30.05R WCI  26
NORTH VERNON + CLOUDY    28  16  59 N9        30.05  WCI  20
SEYMOUR +      MOSUNNY   32  14  47 N13       30.06R WCI  22

$$




USA.gov is the U.S. government's official web portal to all federal, state and local government web resources and services.